Dewpoint
45 40 34 33 29 23 13 14 14 15 24 25 30 22 24 28 27 34 52 55 54 56 61 66 71 72 72 72 71 72 72 72 72 72 72 72 72 71 71 71 72 72 71 70 70 69 69 69 70
34 29 32 28 21 12 11 14 13 22 30 29 25 25 24 31 37 47 53 54 55 56 60 62 70 72 72 72 72 72 72 72 72 72 71 71 71 70 70 70 71 71 71 69 68 68 69 70 69
38 30 25 20 12 11 11 14 16 30 33 33 32 34 30 34 40 44 54 56 56 56 57 62 70 71 72 72 72 72 72 71 71 71 71 70 70 70 70 70 71 71 70 68 67 68 70 69 68
27 24 21 15 10 17 13 16 17 27 33 30 34 35 40 45 43 48 56 56 56 56 57 67 69 71 71 71 71 71 71 71 70 70 70 70 70 70 70 70 70 70 69 68 68 69 69 68 67
22 17 11 5 10 15 16 15 18 17 22 29 33 35 42 50 50 52 55 56 57 57 58 65 69 70 71 71 71 71 70 70 69 70 70 70 71 71 70 70 70 70 69 69 69 69 68 67 67
18 11 6 1 7 10 13 16 17 16 22 32 31 34 44 51 49 52 55 56 58 59 60 64 68 69 70 70 70 70 69 69 69 69 70 70 71 70 70 70 70 69 69 69 68 67 67 66 66
16 9 1 0 5 9 12 17 16 16 18 26 33 29 45 49 52 52 56 58 59 60 62 64 64 66 69 69 69 69 68 68 69 69 69 70 70 69 70 70 70 69 68 67 66 66 66 66 65
16 11 4 2 0 5 14 15 16 16 17 26 34 23 34 50 54 53 56 61 61 63 64 65 64 63 63 65 68 68 68 68 68 68 69 69 69 69 70 69 69 68 66 65 65 65 65 64 63
13 7 -0 -1 -0 5 13 12 16 17 16 17 25 26 46 54 55 54 56 60 62 64 65 67 65 64 64 63 66 68 68 68 68 68 68 67 61 65 68 65 68 66 65 65 64 64 64 64 63
10 3 1 7 7 5 9 11 15 14 14 16 16 31 40 46 51 50 51 53 59 62 65 67 66 65 64 62 64 64 64 64 63 62 64 59 58 59 59 62 65 65 64 64 64 65 64 63 56
11 6 8 7 9 9 7 10 12 12 11 13 16 19 33 36 41 43 44 44 51 57 63 65 67 67 65 62 63 62 62 62 62 61 63 59 58 59 57 62 62 61 63 61 63 63 60 57 57
12 12 10 7 12 9 7 7 10 12 12 14 17 18 19 29 35 36 36 35 38 49 58 63 66 66 67 63 62 62 61 62 62 62 65 62 60 60 58 59 60 60 59 57 58 58 58 58 59
15 10 12 11 13 13 11 11 11 10 11 13 14 15 16 18 19 26 29 30 31 42 52 61 63 65 66 66 62 63 62 63 62 63 64 63 61 62 60 58 58 58 59 58 58 57 58 59 60
13 13 10 13 12 13 11 9 8 10 8 7 9 12 14 15 15 15 17 23 34 39 49 60 62 65 65 66 65 64 64 63 63 63 64 66 63 63 61 59 58 58 58 58 59 58 58 60 59
18 16 10 9 10 9 7 8 7 7 5 5 10 11 13 19 21 19 25 29 34 39 48 57 62 63 66 66 65 64 63 63 63 63 65 67 65 65 64 61 60 59 59 61 60 59 60 59 60
14 11 6 2 5 7 9 -1 -1 7 7 7 8 13 22 26 26 27 30 33 35 39 43 55 59 62 66 66 66 64 64 64 63 63 64 67 66 65 65 62 61 60 61 62 60 59 59 59 59
10 3 3 0 6 5 11 3 1 9 8 10 12 15 16 21 26 29 31 33 33 33 38 49 58 61 65 67 66 66 65 64 63 63 63 66 67 66 66 63 62 63 62 62 62 60 60 59 59
2 4 4 -1 4 7 3 6 5 8 8 8 11 14 15 17 19 20 22 26 29 33 35 38 55 62 65 66 67 66 65 65 64 64 63 65 67 67 67 65 64 64 63 62 63 61 60 59 60
3 1 1 3 2 7 9 7 3 3 4 6 8 11 10 13 17 18 14 16 34 38 41 39 45 62 63 65 65 65 64 65 64 64 64 65 68 68 68 66 65 65 64 64 64 63 62 62 61
11 6 5 3 1 5 5 4 3 2 3 6 8 9 10 10 10 12 16 26 38 44 48 48 47 50 63 64 64 64 64 64 64 65 65 66 68 68 67 67 66 66 66 65 64 64 63 63 63
11 9 7 3 3 6 5 2 -1 0 2 6 8 10 10 9 10 12 17 33 41 49 54 55 54 51 60 62 64 65 65 66 66 65 66 66 67 67 67 67 67 67 67 65 65 65 64 62 62
10 10 7 6 5 1 3 0 1 -2 5 16 18 16 14 14 16 21 29 36 50 54 58 59 55 54 57 63 63 65 64 64 65 66 66 67 67 66 67 66 67 67 67 66 66 66 65 63 59
12 9 7 7 10 6 1 0 1 2 -1 2 8 16 20 21 25 27 33 45 53 58 61 57 52 53 60 63 65 65 63 64 64 65 65 65 66 67 66 67 67 67 67 66 66 66 65 64 61
14 12 14 11 9 5 6 4 1 -2 3 7 10 14 18 22 27 31 43 53 55 61 63 61 59 60 61 65 65 65 63 63 64 63 64 64 64 64 63 64 65 65 65 65 65 65 65 64 62
14 15 11 9 9 6 4 1 4 7 10 9 13 13 17 26 32 37 46 52 55 61 63 63 62 62 64 64 64 65 65 65 64 63 63 61 61 61 61 61 62 63 63 62 62 62 62 62 61
14 15 9 5 5 3 3 2 -3 4 7 14 16 18 21 32 38 41 44 49 57 60 61 62 62 63 65 65 65 66 65 65 64 63 62 62 62 62 63 62 63 62 62 61 60 60 61 60 60
13 15 15 7 5 4 8 2 8 15 18 18 18 20 25 28 36 41 44 49 58 60 61 62 62 62 63 63 64 65 64 63 63 63 62 62 61 61 60 60 60 59 59 59 59 59 59 60 59
12 18 14 13 12 10 5 -0 -3 2 19 20 21 22 24 28 32 40 44 48 58 59 60 61 60 60 61 61 61 62 61 61 61 61 60 59 58 58 58 58 58 57 57 57 57 57 57 56 57
12 13 15 13 14 7 3 -1 0 2 14 20 19 23 27 30 36 39 44 47 55 58 59 59 59 59 59 59 59 59 59 59 59 59 58 58 58 57 57 56 56 55 55 55 54 54 55 55 55
13 13 14 16 13 14 13 11 10 23 21 20 22 25 28 35 39 41 45 48 51 57 57 57 57 57 57 57 58 57 57 57 56 56 55 55 54 53 53 53 52 52 52 53 53 52 53 52 53
Wind_Speed
12 13 9 7 9 12 4 7 6 8 11 7 6 13 17 18 16 8 12 8 17 21 22 18 16 16 18 21 20 20 19 18 18 17 15 14 13 12 11 11 12 13 14 15 16 17 16 15 15
15 8 9 9 12 19 12 7 5 10 12 11 9 6 14 14 16 13 12 12 17 20 22 19 18 17 18 21 21 20 19 18 17 17 16 14 14 12 11 11 10 12 13 14 15 17 18 15 14
12 8 11 7 18 13 13 5 9 11 9 5 5 5 4 8 7 8 15 15 19 20 21 20 19 18 18 21 21 21 19 18 17 17 16 15 14 13 11 10 10 11 12 14 15 15 15 14 13
7 9 8 12 15 9 10 7 8 10 7 3 3 10 8 9 5 8 15 17 18 19 20 25 20 18 18 19 21 21 20 19 18 17 16 16 14 14 12 12 11 12 12 13 14 14 13 13 11
12 11 15 17 4 3 3 2 4 9 7 6 6 10 10 8 10 13 14 17 17 18 18 22 21 19 18 19 19 21 20 20 19 18 17 16 15 13 13 12 11 12 12 12 10 11 13 12 11
11 7 16 16 11 4 4 3 6 6 7 5 6 7 10 12 11 14 14 15 15 17 18 19 19 17 18 18 19 20 21 20 19 19 18 17 16 15 14 12 12 13 12 12 11 10 10 10 8
14 12 19 11 7 7 5 1 8 8 7 7 2 6 11 12 12 14 14 13 15 16 16 17 21 18 16 17 19 19 20 20 19 18 18 17 17 16 13 13 13 12 12 12 12 11 8 6 5
10 11 20 12 8 9 7 3 2 8 6 2 4 4 15 18 13 14 14 13 14 16 16 19 20 20 19 16 16 18 18 19 20 19 18 18 17 16 15 14 13 12 13 12 12 11 8 6 5
9 12 17 16 9 5 8 9 3 3 4 6 4 4 9 14 14 14 14 14 15 17 18 19 21 21 20 19 17 17 16 17 17 17 17 17 16 17 17 16 19 15 14 13 12 10 10 9 8
13 15 15 9 7 2 5 5 5 6 12 10 8 4 6 12 13 14 15 16 16 18 21 21 22 22 22 20 20 19 18 17 17 18 18 17 16 17 18 16 17 15 14 12 11 10 9 9 12
15 19 6 2 2 7 7 6 5 10 13 11 11 10 13 10 13 14 15 16 21 19 20 23 22 22 24 21 20 19 18 18 18 20 19 18 16 16 16 14 14 14 13 12 12 11 11 13 14
16 15 7 5 3 9 10 11 7 12 17 14 6 8 10 13 15 16 17 17 16 22 22 23 24 23 23 21 21 21 20 20 19 21 20 17 15 15 16 16 17 15 15 15 15 14 14 15 9
14 20 10 13 9 12 12 15 14 19 17 16 14 15 16 17 18 19 19 18 16 17 22 23 23 24 23 21 20 20 21 21 21 20 21 20 18 15 16 15 16 16 17 16 15 14 13 11 11
7 13 13 15 13 15 17 17 15 22 18 21 18 17 18 20 20 20 18 17 15 16 19 22 24 23 23 23 18 19 19 20 20 20 21 22 19 16 17 16 16 16 15 16 15 15 12 12 11
11 14 18 21 18 17 12 20 23 26 20 17 18 19 17 15 14 17 13 11 14 16 19 22 22 23 23 23 20 19 20 19 20 19 21 24 22 16 17 18 16 15 14 12 12 12 12 11 11
15 18 20 22 24 17 10 18 11 16 12 13 15 14 13 14 16 16 14 12 11 15 19 21 23 25 24 22 21 20 19 20 19 19 18 22 22 20 18 17 17 16 14 15 14 13 13 12 11
20 19 22 18 13 12 18 14 9 3 9 11 13 14 18 18 19 19 16 17 15 14 14 21 24 26 25 22 21 20 19 20 20 20 20 21 21 21 16 20 17 16 14 14 14 14 12 13 13
23 22 21 21 15 13 20 22 19 12 17 18 17 19 22 23 21 19 19 20 18 13 14 16 21 23 23 21 20 20 20 20 19 20 20 20 22 21 17 18 15 15 15 15 15 15 15 14 11
25 15 19 16 9 8 18 24 23 22 23 24 22 23 25 26 24 23 21 20 10 14 14 15 17 22 23 23 23 22 22 20 20 20 20 18 20 20 14 18 16 15 15 14 15 13 14 11 12
25 25 24 18 21 15 19 26 27 25 22 24 25 25 27 26 24 21 18 14 15 15 15 17 20 20 24 23 22 20 20 18 18 17 17 18 18 18 17 15 15 13 12 17 14 15 12 10 8
27 27 23 22 15 15 22 33 32 32 34 25 29 30 30 28 23 18 16 14 14 14 14 17 20 20 23 24 20 15 11 8 11 16 15 15 15 15 16 15 14 13 14 13 14 14 14 10 8
29 23 22 23 21 23 11 26 23 13 14 18 22 22 21 19 18 14 12 11 11 10 8 13 16 20 23 24 22 20 20 16 16 16 13 13 16 16 16 14 15 13 12 13 10 14 15 11 13
28 20 22 19 22 24 27 20 27 23 16 17 18 19 18 16 15 15 12 6 4 1 5 6 12 18 20 22 19 19 20 20 16 13 15 16 15 14 13 13 14 12 10 11 12 12 13 13 8
20 18 15 18 20 30 26 25 29 24 20 19 16 16 14 13 10 8 6 5 6 5 1 3 8 13 18 18 19 20 22 19 15 15 16 13 11 9 10 7 6 6 7 7 7 9 10 11 12
26 18 17 18 24 36 18 23 29 4 5 10 16 11 9 8 9 10 11 9 9 8 8 8 8 9 12 14 15 17 11 13 15 15 13 14 12 9 10 9 9 8 8 7 7 6 7 9 12
36 31 22 26 23 32 28 35 29 16 13 17 14 11 11 7 6 7 9 10 9 9 9 10 11 11 12 14 16 15 15 12 13 14 13 11 11 12 14 10 9 8 7 6 6 7 9 9 10
30 39 42 30 30 22 20 20 16 12 12 15 18 18 16 12 9 9 10 10 9 10 11 11 12 11 8 9 9 12 12 14 13 14 13 12 11 10 12 11 11 9 8 7 5 6 8 8 9
35 30 29 26 23 30 27 30 28 13 20 21 18 20 18 14 15 10 11 10 11 9 9 11 11 13 12 11 11 11 14 14 14 13 14 12 12 12 11 10 9 7 5 4 4 5 6 7 6
30 33 32 28 28 26 31 26 22 17 12 18 17 18 18 16 11 11 11 12 13 11 11 13 13 13 13 13 13 14 14 14 14 13 13 12 12 11 10 7 6 5 4 2 2 4 6 7 7
35 37 37 27 43 28 32 37 10 1 5 10 13 15 12 9 10 11 13 13 13 16 12 14 15 13 12 13 14 13 13 14 14 14 13 12 11 9 8 6 4 4 2 1 2 4 6 8 9
Wind_Direction
260 244 269 269 244 235 94 109 76 116 101 77 65 47 59 44 24 48 123 112 134 140 150 153 146 145 146 141 141 142 144 145 142 137 132 129 124 120 115 108 109 116 120 121 121 120 115 112 109
285 281 246 279 252 229 108 115 159 82 96 99 109 136 81 74 78 104 127 130 150 146 154 158 152 151 148 142 146 144 146 146 142 138 134 130 127 125 122 123 123 120 124 128 128 128 126 124 120
266 265 272 241 249 343 109 117 103 112 135 151 110 8 96 89 81 104 101 146 151 154 159 154 155 154 151 148 149 148 145 145 144 140 136 133 133 132 128 127 131 130 133 136 133 131 127 124 124
273 210 239 243 241 47 67 109 114 149 164 158 270 112 90 48 107 83 128 145 151 157 165 145 154 155 155 154 151 148 150 149 145 142 139 136 137 138 138 139 141 137 135 135 136 136 131 126 122
240 261 258 236 157 99 112 63 182 186 152 181 247 120 111 108 105 123 137 149 155 157 162 154 156 159 159 156 152 152 153 152 152 150 145 143 142 143 145 146 144 137 132 129 132 137 137 140 143
256 254 252 233 167 156 133 132 210 229 174 164 228 126 119 126 137 138 143 153 159 161 162 163 160 165 162 157 156 158 156 158 157 155 151 149 147 149 153 149 144 135 133 136 139 142 143 147 154
251 266 258 294 104 190 121 232 201 206 200 137 19 213 117 168 127 148 148 151 161 163 166 166 175 175 165 163 161 164 161 162 162 160 158 154 154 153 154 148 145 142 145 150 149 150 154 158 168
281 278 264 247 208 218 130 159 239 236 141 93 320 231 187 133 152 150 153 157 167 168 169 168 177 181 181 177 169 169 169 167 167 166 164 163 158 157 158 156 155 156 157 158 158 161 165 174 188
258 253 246 237 221 177 149 202 156 290 240 200 191 339 78 135 155 164 165 169 174 178 177 175 181 183 183 184 180 175 172 171 170 169 170 164 173 173 169 186 159 167 167 167 169 175 179 186 200
233 235 251 17 34 288 169 245 107 246 216 216 202 166 156 157 177 190 194 188 192 188 184 182 184 183 185 190 177 187 182 185 188 185 179 187 185 188 186 167 164 170 173 174 178 185 200 209 211
231 249 338 154 311 271 282 225 209 249 254 253 222 204 183 202 201 214 220 220 189 195 190 189 187 186 189 196 178 190 187 190 195 194 187 203 190 190 192 165 177 179 182 189 188 191 212 218 248
245 244 273 267 219 260 252 274 263 250 256 288 294 259 253 208 235 226 241 240 221 185 192 194 190 189 193 195 189 189 193 193 191 196 191 209 200 190 198 187 188 192 186 204 196 202 217 228 233
235 261 227 256 240 259 270 261 261 264 260 256 253 250 249 249 249 242 245 249 250 200 187 193 195 192 193 207 193 196 201 191 199 194 195 210 205 198 201 201 192 194 186 206 196 222 204 219 231
296 258 258 249 246 250 256 260 253 256 256 244 247 253 250 251 251 252 248 250 236 216 193 187 202 192 195 199 205 197 198 191 202 197 198 204 211 202 207 211 207 199 211 204 207 207 210 220 226
259 251 251 244 238 243 255 261 247 250 256 254 238 245 249 255 251 247 248 250 229 231 194 192 201 198 197 199 206 198 198 214 198 207 198 190 217 211 212 211 209 207 210 217 221 213 211 220 225
236 235 255 246 220 218 225 259 266 209 235 241 249 237 230 237 233 234 230 230 236 220 213 195 201 203 198 200 196 201 203 200 202 208 198 193 208 222 198 213 207 215 197 208 222 215 215 221 228
224 244 229 238 200 215 213 255 247 140 239 253 258 253 250 240 236 236 233 238 236 231 221 204 200 204 197 201 197 202 205 198 208 203 207 195 200 219 206 223 211 203 210 210 220 217 218 213 222
228 224 239 252 176 214 244 243 259 228 246 255 249 247 251 249 240 244 243 246 241 235 243 233 199 197 198 199 201 198 204 200 204 205 207 195 195 213 210 227 222 190 217 206 219 220 214 224 214
257 270 273 234 202 205 259 267 265 264 257 252 248 250 249 249 249 243 249 249 233 251 257 225 231 189 195 198 201 198 204 192 203 203 206 199 183 193 218 226 222 205 201 212 213 219 227 214 234
248 257 248 256 267 239 265 268 267 262 256 253 255 249 248 250 252 247 237 225 228 242 244 237 223 222 197 199 205 205 201 198 201 199 192 189 171 179 192 211 227 213 208 224 213 211 222 220 178
236 244 244 253 259 230 270 272 265 255 245 251 251 252 253 253 250 241 221 218 230 244 247 242 242 220 200 205 201 189 191 182 195 196 179 188 175 174 189 201 206 207 209 233 221 207 198 187 195
238 232 250 262 267 261 251 278 279 267 215 224 248 247 248 242 235 241 227 210 224 239 253 253 235 219 201 201 190 171 188 186 199 190 179 175 183 185 184 202 204 205 202 214 228 215 202 175 192
243 247 253 256 262 268 256 258 270 259 256 251 241 237 236 231 220 217 205 231 205 243 263 241 216 205 190 195 170 172 189 200 194 185 180 184 185 186 189 198 210 202 194 207 219 207 199 204 198
231 234 249 246 255 257 247 248 264 254 238 230 242 228 227 227 218 205 140 163 173 125 122 238 194 194 191 172 171 190 199 192 161 176 175 164 150 142 145 151 169 180 199 203 211 215 215 205 208
224 206 218 232 230 248 245 235 236 221 248 238 219 224 216 213 197 194 180 198 179 161 149 166 174 192 190 179 176 203 162 150 162 165 159 146 147 153 158 164 174 181 189 181 183 198 211 213 215
212 205 217 222 237 254 235 244 250 264 238 202 234 253 255 166 188 216 217 207 180 161 166 161 156 162 192 193 183 171 165 160 151 151 146 143 158 166 154 165 168 153 163 168 184 207 217 216 226
200 216 226 251 272 278 263 250 242 220 207 210 224 225 224 239 210 225 219 200 167 175 166 160 143 130 118 114 116 121 126 120 128 126 128 127 123 127 138 154 161 167 171 180 198 221 233 232 238
220 213 221 230 246 244 245 244 254 240 209 213 224 230 230 228 228 217 217 190 164 168 162 143 139 131 130 122 115 112 111 113 115 120 128 134 137 143 151 163 171 168 168 193 225 262 275 265 264
212 225 217 224 230 239 255 254 254 272 232 191 218 217 220 216 213 213 210 182 169 161 158 143 137 135 125 121 119 123 125 131 134 134 138 145 148 156 154 152 151 159 174 172 255 266 279 274 270
215 216 213 215 225 232 253 259 268 1 276 217 210 202 198 199 198 204 198 179 188 169 169 152 143 141 141 143 144 143 142 141 139 137 134 139 128 126 128 131 132 134 135 144 250 282 279 279 275